Location: Fort Wayne
(41.1310°N, 85.1290°W)
Time: 11:32:49
(UTC-05:00)

Amateur Radio Satellites - All Passes

Search period start: 05 December 2016 11:02
Search period end: 06 December 2016 11:02
Location: Fort Wayne, 41.1310°N, 85.1290°W

Satellite Date Start Highest point End Downlink Frequencies (MHz)
Time Altitude Azimuth
ESTCUBE 1 05 Dec 11:13:11 11:16:21 19° 93° (E) 11:19:31 437.505/2401.250
POPSAT HIP 1 05 Dec 11:13:21 11:17:30 53° 74° (ENE) 11:21:42 437.405
UNISAT 6 05 Dec 11:21:38 11:24:29 16° 269° (W) 11:27:18 437.425
GONETS M04 05 Dec 11:37:59 11:45:58 38° 72° (ENE) 11:53:54
HUMSAT D 05 Dec 11:50:26 11:53:38 22° 292° (WNW) 11:56:49 437.325/437.525
Cosmos 2499 05 Dec 11:51:07 11:59:28 49° 75° (ENE) 12:07:12 435.465 / 435.565
CUBEBUG 1 05 Dec 11:51:35 11:55:27 29° 96° (E) 11:59:17 437.445
BUGSAT 1 05 Dec 11:56:28 12:00:34 53° 73° (ENE) 12:04:43 437.445
50 SAT 05 Dec 11:58:45 12:00:59 16° 94° (E) 12:03:14 437.505
VELOX 1 05 Dec 12:00:15 12:03:52 24° 95° (E) 12:07:27 145.980
Gurwin Techsat 1B 05 Dec 12:07:26 12:08:24 10° 57° (ENE) 12:09:23 435.225
NANOSAT C BR1 05 Dec 12:08:57 12:12:55 37° 262° (W) 12:16:54 145.865
PCSat 05 Dec 12:12:27 12:17:50 75° 117° (ESE) 12:23:16 145.827
QB50P2 05 Dec 12:14:15 12:17:58 29° 264° (W) 12:21:44 145.880/145.840
POLYITAN 1 05 Dec 12:14:43 12:18:31 30° 263° (W) 12:22:20 437.675
Oscar 19 05 Dec 12:14:50 12:18:49 23° 65° (ENE) 12:22:49 437.125/150
DX 1 05 Dec 12:16:53 12:20:00 19° 94° (E) 12:23:07 434.975-435.025
DANDE 05 Dec 12:23:13 12:24:57 12° 285° (WNW) 12:26:32 436.750
UKube-1 05 Dec 12:25:55 12:28:49 17° 93° (E) 12:31:41 .
QB50P1 05 Dec 12:28:36 12:31:57 22° 266° (W) 12:35:19 145.935-145.965
JAS-2 05 Dec 12:29:43 12:35:01 26° 265° (W) 12:39:53 435.910
DUCHIFAT 1 05 Dec 12:32:18 12:35:43 23° 265° (W) 12:39:08 145.980
AO-85 05 Dec 12:37:25 12:40:32 23° 247° (WSW) 12:43:35 145.980
SPROUT 05 Dec 12:39:30 12:43:35 41° 98° (E) 12:47:38 437.525
ESTCUBE 1 05 Dec 12:49:04 12:53:19 41° 289° (WNW) 12:57:33 437.505/2401.250
POPSAT HIP 1 05 Dec 12:51:31 12:53:35 13° 269° (W) 12:55:41 437.405
AISAT 05 Dec 12:58:59 13:03:29 75° 284° (WNW) 13:07:54 437.250
RS-15 05 Dec 13:08:49 13:17:57 23° 3° (N) 13:27:07 29.354- 29.394
CUBEBUG 1 05 Dec 13:27:55 13:31:37 26° 292° (WNW) 13:35:18 437.445
50 SAT 05 Dec 13:31:13 13:34:20 29° 289° (WNW) 13:37:27 437.505
BUGSAT 1 05 Dec 13:34:16 13:36:15 13° 269° (W) 13:38:13 437.445
GONETS M04 05 Dec 13:34:42 13:42:54 47° 272° (W) 13:51:06
VELOX 1 05 Dec 13:36:22 13:40:20 32° 291° (WNW) 13:44:16 145.980
Gurwin Techsat 1B 05 Dec 13:42:08 13:47:25 76° 75° (ENE) 13:52:45 435.225
Cosmos 2499 05 Dec 13:44:44 13:52:15 36° 276° (W) 13:59:21 435.465 / 435.565
DX 1 05 Dec 13:52:14 13:56:20 39° 289° (WNW) 14:00:23 434.975-435.025
Oscar 19 05 Dec 13:53:00 13:57:51 43° 261° (W) 14:02:45 437.125/150
AO-7 05 Dec 13:53:55 14:00:42 29° 56° (NE) 14:07:32 29.400- 29.500
PCSat 05 Dec 13:57:59 14:01:49 19° 316° (NW) 14:05:41 145.827
UKube-1 05 Dec 14:00:56 14:05:01 41° 289° (WNW) 14:09:05 .
TISAT 1 05 Dec 14:04:11 14:08:22 59° 101° (E) 14:12:31 437.305
ITUPSAT 1 05 Dec 14:07:37 14:09:22 12° 90° (E) 14:11:08 437.325
BEESAT 3 05 Dec 14:13:23 14:17:14 45° 53° (NE) 14:21:04 437.485
SPROUT 05 Dec 14:16:18 14:19:11 18° 295° (WNW) 14:22:02 437.525
ITAMSAT 1 05 Dec 14:19:35 14:24:26 40° 69° (ENE) 14:29:16 435.822/435.867
BEESAT 2 05 Dec 14:40:51 14:44:42 41° 53° (NE) 14:48:31 435.950
SWISSCUBE 05 Dec 15:11:37 15:16:21 64° 102° (ESE) 15:21:03 437.505
BEESAT 05 Dec 15:15:44 15:20:29 63° 102° (ESE) 15:25:10 436.000
AUBIESAT-1 05 Dec 15:15:51 15:20:22 52° 105° (ESE) 15:24:41 437.475
RS-15 05 Dec 15:24:01 15:35:25 39° 37° (NE) 15:46:31 29.354- 29.394
Gurwin Techsat 1B 05 Dec 15:25:31 15:27:56 13° 271° (W) 15:30:22 435.225
M-CUBED/EXP-1 PRIME 05 Dec 15:27:21 15:32:05 86° 111° (ESE) 15:36:36 437.505
TISAT 1 05 Dec 15:41:35 15:43:29 13° 297° (WNW) 15:45:23 437.305
ITUPSAT 1 05 Dec 15:42:56 15:47:41 70° 286° (WNW) 15:52:24 437.325
AO-7 05 Dec 15:44:37 15:52:50 68° 255° (WSW) 16:01:10 29.400- 29.500
BEESAT 3 05 Dec 15:52:05 15:54:29 16° 250° (WSW) 15:56:54 437.485
O/OREOS (USA 219) 05 Dec 15:53:39 15:57:20 24° 102° (ESE) 16:01:00 437.305
ITAMSAT 1 05 Dec 15:59:44 16:03:59 25° 265° (W) 16:08:15 435.822/435.867
ISS 05 Dec 16:00:13 16:02:11 15° 131° (SE) 16:04:09 145.825
GOMX 1 05 Dec 16:12:08 16:12:35 10° 58° (ENE) 16:13:03 467.674
BEESAT 2 05 Dec 16:19:27 16:22:11 18° 249° (WSW) 16:24:53 435.950
MOZHAYETS 4 05 Dec 16:27:58 16:32:33 90° 104° (ESE) 16:37:06
BRITE-PL 05 Dec 16:28:56 16:32:46 33° 69° (ENE) 16:36:51 437.365/2234.400
CUBESAT XI-V 05 Dec 16:30:27 16:32:49 14° 90° (E) 16:35:10 437.345
SWISSCUBE 05 Dec 16:51:01 16:53:35 15° 298° (WNW) 16:56:10 437.505
AUBIESAT-1 05 Dec 16:51:13 16:54:19 18° 301° (WNW) 16:57:21 437.475
LilacSat-2 05 Dec 16:53:36 16:55:06 12° 64° (ENE) 16:56:35 437.200
BEESAT 05 Dec 16:55:05 16:57:43 15° 298° (WNW) 17:00:20 436.000
AIST 2 05 Dec 17:02:02 17:05:55 35° 50° (NE) 17:09:48 435.215
KKS-1 05 Dec 17:02:59 17:07:30 87° 106° (ESE) 17:11:58 437.445
M-CUBED/EXP-1 PRIME 05 Dec 17:03:54 17:05:48 12° 305° (NW) 17:07:41 437.505
STARS 05 Dec 17:10:52 17:15:10 48° 100° (E) 17:19:25 437.465
HORYU 2 05 Dec 17:15:05 17:19:35 89° 267° (W) 17:24:05 437.375
CUTE-I 05 Dec 17:28:06 17:33:00 38° 68° (ENE) 17:37:55 437.470
NOAA 18 05 Dec 17:32:22 17:37:02 29° 65° (ENE) 17:41:43 137.9125
O/OREOS (USA 219) 05 Dec 17:32:27 17:36:34 33° 299° (WNW) 17:40:41 437.305
ISS 05 Dec 17:35:05 17:38:21 61° 328° (NNW) 17:41:37 145.825
RS-15 05 Dec 17:36:49 17:49:11 78° 242° (WSW) 18:01:06 29.354- 29.394
Cosmos 2491 05 Dec 17:38:11 17:45:48 32° 70° (ENE) 17:53:22 435.465 / 435.565
AO-7 05 Dec 17:44:48 17:47:04 11° 274° (W) 17:49:20 29.400- 29.500
GOMX 1 05 Dec 17:45:13 17:49:45 88° 74° (ENE) 17:54:39 467.674
CINEMA 3 05 Dec 17:47:45 17:49:26 12° 60° (ENE) 17:51:08 145.822/145.860
NOAA 15 05 Dec 17:52:34 17:57:46 69° 73° (ENE) 18:03:00 137.62
Cubesat XI-IV 05 Dec 17:53:23 17:58:40 63° 72° (ENE) 18:04:00 437.490
DOVE 4 05 Dec 17:58:36 18:03:13 51° 72° (ENE) 18:08:08 437.250
CUBESAT XI-V 05 Dec 18:05:58 18:10:33 59° 286° (WNW) 18:15:09 437.345
BRITE-PL 05 Dec 18:08:07 18:11:23 21° 268° (W) 18:14:50 437.365/2234.400
YUBILEINY 05 Dec 18:08:28 18:14:01 19° 78° (ENE) 18:19:36 435.215
CANX-2 05 Dec 18:22:35 18:24:52 14° 65° (ENE) 18:27:09 2200.000
LilacSat-2 05 Dec 18:25:10 18:28:57 51° 261° (W) 18:32:42 437.200
AIST 2 05 Dec 18:40:51 18:44:14 23° 248° (WSW) 18:47:36 435.215
HO-68 05 Dec 18:42:13 18:48:46 41° 64° (ENE) 18:55:21 435.675
STARS 05 Dec 18:48:20 18:51:06 17° 296° (WNW) 18:53:52 437.465
SEEDS 05 Dec 18:48:52 18:51:26 16° 65° (ENE) 18:54:01 437.485
COMPASS 1 05 Dec 19:00:42 19:02:58 14° 65° (ENE) 19:05:13 437.405
CUTE-I 05 Dec 19:08:32 19:13:05 28° 265° (W) 19:17:41 437.470
AIST 1 05 Dec 19:09:15 19:09:45 10° 83° (E) 19:10:14
NOAA 18 05 Dec 19:12:19 19:17:29 40° 262° (W) 19:22:42 137.9125
ISS 05 Dec 19:13:05 19:15:21 17° 346° (NNW) 19:17:38 145.825
PCSat 05 Dec 19:19:20 19:21:11 12° 36° (NE) 19:23:02 145.827
CINEMA 3 05 Dec 19:20:50 19:25:46 89° 324° (NW) 19:30:48 145.822/145.860
SO-50 05 Dec 19:29:14 19:31:34 14° 108° (ESE) 19:33:54 436.795
Cosmos 2504 05 Dec 19:33:43 19:40:56 34° 84° (E) 19:48:30 435.465 / 435.565
Cosmos 2491 05 Dec 19:34:36 19:43:01 56° 270° (W) 19:51:24 435.465 / 435.565
ZACube-1 05 Dec 19:35:00 19:37:17 14° 64° (ENE) 19:39:35 437.345
NOAA 15 05 Dec 19:35:18 19:38:02 14° 270° (W) 19:40:46 137.62
Cubesat XI-IV 05 Dec 19:35:48 19:39:09 17° 269° (W) 19:42:31 437.490
DOVE 4 05 Dec 19:38:06 19:41:15 17° 270° (W) 19:44:33 437.250
CUTE 1.7 + AOD 2 05 Dec 19:38:08 19:42:20 85° 77° (ENE) 19:46:34 437.475
FUNcube-1 05 Dec 19:42:39 19:45:16 15° 64° (ENE) 19:47:51 145.935
CUBEBUG 2 05 Dec 19:42:52 19:47:19 41° 71° (ENE) 19:51:45 437.445
RS-15 05 Dec 19:52:08 19:59:30 19° 263° (W) 20:06:46 29.354- 29.394
STRAND 1 05 Dec 19:52:31 19:57:34 58° 101° (E) 20:02:34 437.568
CANX-2 05 Dec 19:56:12 20:00:18 50° 261° (W) 20:04:25 2200.000
YUBILEINY 05 Dec 20:00:53 20:09:36 85° 276° (W) 20:18:25 435.215
AAUSAT CUBESAT 2 05 Dec 20:04:18 20:08:19 56° 74° (ENE) 20:12:21 437.432
Oscar 11 05 Dec 20:12:42 20:16:23 28° 69° (ENE) 20:20:04 145.826/435.025
SEEDS 05 Dec 20:22:49 20:26:47 43° 262° (W) 20:30:45 437.485
UWE-3 05 Dec 20:26:10 20:30:50 75° 76° (ENE) 20:35:27 435.000/436.395/437.385
HO-68 05 Dec 20:29:50 20:36:26 40° 262° (W) 20:43:07 435.675
CUSAT 1 05 Dec 20:32:20 20:35:45 38° 79° (E) 20:40:07 437.405
COMPASS 1 05 Dec 20:34:07 20:38:06 48° 261° (W) 20:42:07 437.405
AIST 1 05 Dec 20:42:26 20:46:41 64° 279° (W) 20:51:01
ISS 05 Dec 20:51:01 20:52:52 14° 6° (N) 20:54:43 145.825
PCSat 05 Dec 21:00:25 21:05:47 58° 57° (ENE) 21:11:07 145.827
HUMSAT D 05 Dec 21:06:01 21:09:10 21° 67° (ENE) 21:12:17 437.325/437.525
SO-50 05 Dec 21:06:43 21:11:29 71° 304° (NW) 21:16:11 436.795
DELFI C3 05 Dec 21:07:18 21:10:56 37° 72° (ENE) 21:14:35 145.870
ZACube-1 05 Dec 21:08:32 21:13:04 62° 260° (W) 21:17:33 437.345
PRISM 05 Dec 21:10:55 21:14:18 24° 96° (E) 21:17:41 437.425
DANDE 05 Dec 21:14:43 21:16:53 19° 77° (ENE) 21:19:21 436.750
FUNcube-1 05 Dec 21:16:35 21:21:03 55° 260° (W) 21:25:28 145.935
CUBEBUG 2 05 Dec 21:20:28 21:24:02 21° 267° (W) 21:27:37 437.445
Cosmos 2504 05 Dec 21:25:48 21:33:53 53° 284° (WNW) 21:42:29 435.465 / 435.565
STRAND 1 05 Dec 21:32:54 21:36:16 18° 298° (WNW) 21:39:36 437.568
UNISAT 6 05 Dec 21:38:10 21:38:32 10° 89° (E) 21:38:53 437.425
AAUSAT CUBESAT 2 05 Dec 21:42:52 21:44:08 11° 270° (W) 21:45:24 437.432
Oscar 11 05 Dec 21:48:54 21:52:28 25° 265° (W) 21:56:03 145.826/435.025
YUBILEINY 05 Dec 22:02:19 22:07:48 18° 299° (WNW) 22:13:21 435.215
TIGRISAT 05 Dec 22:05:44 22:09:01 20° 93° (E) 22:12:13 435.000
UWE-3 05 Dec 22:06:37 22:07:45 11° 271° (W) 22:08:53 435.000/436.395/437.385
ANTELSAT 05 Dec 22:06:57 22:10:24 22° 94° (E) 22:13:46 437.575/2403.000
ESTCUBE 1 05 Dec 22:13:03 22:16:01 18° 65° (ENE) 22:19:00 437.505/2401.250
CUSAT 1 05 Dec 22:15:27 22:17:34 14° 266° (W) 22:19:56 437.405
ISS 05 Dec 22:27:08 22:30:09 31° 26° (NNE) 22:33:09 145.825
HUMSAT D 05 Dec 22:40:45 22:44:34 33° 263° (W) 22:48:22 437.325/437.525
DELFI C3 05 Dec 22:43:33 22:45:54 15° 268° (W) 22:48:16 145.870
PCSat 05 Dec 22:44:54 22:48:42 20° 254° (WSW) 22:52:29 145.827
PRISM 05 Dec 22:46:00 22:49:33 28° 291° (WNW) 22:53:06 437.425
CUBEBUG 1 05 Dec 22:47:37 22:51:07 24° 67° (ENE) 22:54:39 437.445
SO-50 05 Dec 22:50:41 22:52:47 13° 324° (NW) 22:54:52 436.795
VELOX 1 05 Dec 22:57:41 23:01:02 22° 66° (ENE) 23:04:24 145.980
DANDE 05 Dec 22:58:11 22:59:26 12° 265° (W) 23:00:46 436.750
UNISAT 6 05 Dec 23:11:21 23:15:45 69° 285° (WNW) 23:20:02 437.425
DX 1 05 Dec 23:12:46 23:15:35 17° 64° (ENE) 23:18:26 434.975-435.025
UKube-1 05 Dec 23:20:53 23:23:26 16° 64° (ENE) 23:26:00 .
SPROUT 05 Dec 23:32:46 23:36:34 32° 70° (ENE) 23:40:24 437.525
JAS-2 05 Dec 23:37:20 23:42:10 37° 98° (E) 23:47:10 435.910
TIGRISAT 05 Dec 23:41:47 23:45:47 35° 290° (WNW) 23:49:41 435.000
ANTELSAT 05 Dec 23:43:14 23:47:08 32° 291° (WNW) 23:50:58 437.575/2403.000
ESTCUBE 1 05 Dec 23:48:11 23:52:28 45° 261° (W) 23:56:47 437.505/2401.250
NANOSAT C BR1 05 Dec 23:53:13 23:57:02 32° 97° (E) 00:00:49 145.865
AISAT 05 Dec 23:55:46 00:00:11 86° 253° (WSW) 00:04:40 437.250
QB50P2 05 Dec 23:58:35 00:02:38 43° 98° (E) 00:06:40 145.880/145.840
POLYITAN 1 05 Dec 23:59:10 00:03:11 41° 98° (E) 00:07:09 437.675
ISS 06 Dec 00:03:36 00:06:41 35° 223° (SW) 00:09:43 145.825
50 SAT 06 Dec 00:05:40 00:09:10 78° 258° (WSW) 00:12:42 437.505
QB50P1 06 Dec 00:12:11 00:16:23 58° 100° (E) 00:20:32 145.935-145.965
DUCHIFAT 1 06 Dec 00:15:21 00:19:30 53° 100° (E) 00:23:36 145.980
CUBEBUG 1 06 Dec 00:23:25 00:27:15 30° 264° (W) 00:31:09 437.445
Cosmos 2499 06 Dec 00:26:31 00:34:16 40° 86° (E) 00:42:18 435.465 / 435.565
VELOX 1 06 Dec 00:33:13 00:37:15 35° 262° (W) 00:41:20 145.980
POPSAT HIP 1 06 Dec 00:33:39 00:37:54 81° 285° (WNW) 00:42:07 437.405
GONETS M04 06 Dec 00:38:59 00:47:01 43° 87° (E) 00:55:02
PHONESAT 2.4 06 Dec 00:39:19 00:41:10 17° 154° (SSE) 00:43:02 2401.200-2431.200
M-CUBED/EXP-1 PRIME 06 Dec 00:41:57 00:43:22 11° 54° (NE) 00:44:49 437.505
DX 1 06 Dec 00:47:16 00:51:24 45° 261° (W) 00:55:37 434.975-435.025
UKube-1 06 Dec 00:54:52 00:59:03 49° 260° (W) 01:03:16 .
TISAT 1 06 Dec 00:55:23 00:59:23 42° 72° (ENE) 01:03:25 437.305
SPROUT 06 Dec 01:09:09 01:12:31 22° 266° (W) 01:15:55 437.525
AO-85 06 Dec 01:13:09 01:14:53 12° 108° (ESE) 01:16:35 145.980
BUGSAT 1 06 Dec 01:13:25 01:17:39 87° 287° (WNW) 01:21:47 437.445
ITUPSAT 1 06 Dec 01:14:01 01:16:47 16° 62° (ENE) 01:19:35 437.325
JAS-2 06 Dec 01:22:55 01:27:08 26° 294° (WNW) 01:31:28 435.910
NANOSAT C BR1 06 Dec 01:29:20 01:32:33 21° 293° (WNW) 01:35:45 145.865
QB50P2 06 Dec 01:35:22 01:38:05 17° 295° (WNW) 01:40:47 145.880/145.840
POLYITAN 1 06 Dec 01:35:50 01:38:38 17° 295° (WNW) 01:41:26 437.675
QB50P1 06 Dec 01:49:41 01:51:38 13° 297° (WNW) 01:53:35 145.935-145.965
DUCHIFAT 1 06 Dec 01:52:34 01:54:43 14° 296° (WNW) 01:56:51 145.980
Gurwin Techsat 1B 06 Dec 01:58:49 02:03:27 30° 96° (E) 02:08:04 435.225
AUBIESAT-1 06 Dec 02:00:57 02:05:00 61° 69° (ENE) 02:09:22 437.475
O/OREOS (USA 219) 06 Dec 02:02:50 02:07:09 46° 63° (ENE) 02:11:26 437.305
Oscar 19 06 Dec 02:04:08 02:09:19 66° 102° (ESE) 02:14:28 437.125/150
M-CUBED/EXP-1 PRIME 06 Dec 02:13:01 02:17:05 80° 254° (WSW) 02:21:30 437.505
PHONESAT 2.4 06 Dec 02:13:29 02:16:07 59° 168° (SSE) 02:18:44 2401.200-2431.200
SWISSCUBE 06 Dec 02:17:43 02:22:28 74° 74° (ENE) 02:27:14 437.505
Cosmos 2499 06 Dec 02:19:05 02:27:13 46° 286° (WNW) 02:35:43 435.465 / 435.565
BEESAT 06 Dec 02:21:47 02:26:32 73° 74° (ENE) 02:31:18 436.000
TISAT 1 06 Dec 02:32:33 02:35:12 16° 267° (W) 02:37:53 437.305
ITAMSAT 1 06 Dec 02:34:04 02:36:35 13° 90° (E) 02:39:05 435.822/435.867
GONETS M04 06 Dec 02:35:44 02:43:49 41° 287° (WNW) 02:51:56
ITUPSAT 1 06 Dec 02:49:23 02:54:07 61° 259° (WSW) 02:58:52 437.325
AO-85 06 Dec 02:49:50 02:54:48 83° 302° (WNW) 02:59:24 145.980
MOZHAYETS 4 06 Dec 03:29:21 03:33:57 84° 75° (ENE) 03:38:33
CUBESAT XI-V 06 Dec 03:34:11 03:36:34 14° 63° (ENE) 03:38:57 437.345
AUBIESAT-1 06 Dec 03:38:13 03:39:53 12° 266° (W) 03:41:34 437.475
Gurwin Techsat 1B 06 Dec 03:38:37 03:43:23 35° 292° (WNW) 03:48:09 435.225
O/OREOS (USA 219) 06 Dec 03:43:21 03:46:09 16° 260° (W) 03:48:55 437.305
Oscar 19 06 Dec 03:44:53 03:48:05 17° 299° (WNW) 03:51:15 437.125/150
AO-7 06 Dec 03:46:21 03:54:13 43° 100° (E) 04:02:00 29.400- 29.500
PHONESAT 2.4 06 Dec 03:48:39 03:51:18 74° 184° (S) 03:53:56 2401.200-2431.200
SO-50 06 Dec 03:59:05 04:01:46 15° 39° (NE) 04:04:26 436.795
SWISSCUBE 06 Dec 03:59:14 04:00:45 11° 270° (W) 04:02:16 437.505
KKS-1 06 Dec 04:00:32 04:05:00 79° 74° (ENE) 04:09:30 437.445
BEESAT 06 Dec 04:03:10 04:04:48 12° 270° (W) 04:06:26 436.000
STARS 06 Dec 04:07:08 04:11:18 42° 71° (ENE) 04:15:30 437.465
ITAMSAT 1 06 Dec 04:11:23 04:16:33 71° 287° (WNW) 04:21:41 435.822/435.867
AO-85 06 Dec 04:33:30 04:35:51 14° 320° (NW) 04:38:07 145.980
BRITE-PL 06 Dec 04:33:51 04:36:48 14° 89° (E) 04:39:47 437.365/2234.400
HORYU 2 06 Dec 05:07:10 05:10:03 17° 93° (E) 05:12:56 437.375
CUBESAT XI-V 06 Dec 05:08:53 05:13:25 62° 259° (W) 05:17:59 437.345
PHONESAT 2.4 06 Dec 05:24:02 05:26:21 27° 202° (SSW) 05:28:39 2401.200-2431.200
Cosmos 2504 06 Dec 05:28:20 05:31:42 12° 55° (NE) 05:35:00 435.465 / 435.565
STRAND 1 06 Dec 05:33:42 05:34:57 11° 58° (ENE) 05:36:14 437.568
SO-50 06 Dec 05:38:18 05:42:50 82° 241° (WSW) 05:47:17 436.795
AO-7 06 Dec 05:39:09 05:46:57 45° 298° (WNW) 05:54:45 29.400- 29.500
BEESAT 3 06 Dec 05:40:22 05:44:16 85° 119° (ESE) 05:48:13 437.485
STARS 06 Dec 05:44:51 05:47:49 18° 267° (W) 05:50:49 437.465
CUTE-I 06 Dec 05:46:34 05:49:22 14° 90° (E) 05:52:09 437.470
GOMX 1 06 Dec 05:46:50 05:51:39 31° 94° (E) 05:56:27 467.674
RS-15 06 Dec 05:53:35 05:59:49 16° 95° (E) 06:06:09 29.354- 29.394
NOAA 18 06 Dec 05:56:59 05:58:06 11° 88° (E) 05:59:14 137.9125
DOVE 4 06 Dec 05:58:42 06:02:00 17° 89° (E) 06:05:15 437.250
LilacSat-2 06 Dec 05:59:31 06:01:52 16° 93° (E) 06:04:13 437.200
NOAA 15 06 Dec 06:08:15 06:12:37 26° 95° (E) 06:16:58 137.62
BEESAT 2 06 Dec 06:09:25 06:13:20 79° 121° (ESE) 06:17:19 435.950
BRITE-PL 06 Dec 06:10:16 06:15:42 77° 284° (WNW) 06:21:21 437.365/2234.400
YUBILEINY 06 Dec 06:11:16 06:19:44 48° 75° (ENE) 06:28:11 435.215
Cubesat XI-IV 06 Dec 06:11:18 06:15:39 25° 94° (E) 06:19:56 437.490
Cosmos 2491 06 Dec 06:39:29 06:47:16 37° 85° (E) 06:55:00 435.465 / 435.565
HORYU 2 06 Dec 06:42:36 06:46:49 44° 289° (WNW) 06:50:59 437.375
AIST 1 06 Dec 06:49:38 06:53:32 30° 75° (ENE) 06:57:24
STRAND 1 06 Dec 07:08:09 07:13:18 82° 75° (ENE) 07:18:27 437.568
CINEMA 3 06 Dec 07:16:41 07:20:28 23° 93° (E) 07:24:06 145.822/145.860
Cosmos 2504 06 Dec 07:18:27 07:27:12 62° 78° (ENE) 07:35:25 435.465 / 435.565
BEESAT 3 06 Dec 07:20:53 07:22:28 12° 320° (NW) 07:24:03 437.485
CUTE 1.7 + AOD 2 06 Dec 07:24:25 07:26:44 14° 91° (E) 07:29:05 437.475
CUTE-I 06 Dec 07:24:36 07:29:56 70° 286° (WNW) 07:35:11 437.470
GOMX 1 06 Dec 07:24:44 07:29:42 37° 291° (WNW) 07:34:40 467.674
LilacSat-2 06 Dec 07:32:50 07:36:16 33° 288° (WNW) 07:39:39 437.200
NOAA 18 06 Dec 07:33:56 07:39:31 87° 105° (ESE) 07:45:02 137.9125
DOVE 4 06 Dec 07:34:51 07:40:05 62° 286° (WNW) 07:45:10 437.250
AO-7 06 Dec 07:36:40 07:37:34 10° 320° (NW) 07:38:28 29.400- 29.500
CANX-2 06 Dec 07:41:26 07:45:00 26° 95° (E) 07:48:32 2200.000
NOAA 15 06 Dec 07:47:35 07:52:29 40° 291° (WNW) 07:57:22 137.62
BEESAT 2 06 Dec 07:49:47 07:51:39 13° 320° (NW) 07:53:33 435.950
Cubesat XI-IV 06 Dec 07:50:50 07:55:51 42° 291° (WNW) 08:00:48 437.490
BRITE-PL 06 Dec 07:51:45 07:53:20 11° 301° (WNW) 07:54:55 437.365/2234.400
HO-68 06 Dec 07:56:57 08:03:43 42° 99° (E) 08:10:26 435.675
RS-15 06 Dec 07:58:16 08:09:53 73° 116° (ESE) 08:22:05 29.354- 29.394
PRISM 06 Dec 08:00:47 08:03:31 18° 65° (ENE) 08:06:15 437.425
SEEDS 06 Dec 08:06:38 08:10:18 29° 96° (E) 08:13:58 437.485
YUBILEINY 06 Dec 08:08:27 08:16:17 37° 275° (W) 08:24:07 435.215
COMPASS 1 06 Dec 08:17:04 08:20:33 25° 95° (E) 08:23:59 437.405
UWE-3 06 Dec 08:17:39 08:19:59 14° 91° (E) 08:22:15 435.000/436.395/437.385
AIST 1 06 Dec 08:27:30 08:30:57 23° 272° (W) 08:34:23
Cosmos 2491 06 Dec 08:35:25 08:43:49 48° 285° (WNW) 08:52:15 435.465 / 435.565
UNISAT 6 06 Dec 08:36:28 08:37:55 11° 61° (ENE) 08:39:22 437.425
AIST 2 06 Dec 08:37:05 08:41:10 73° 119° (ESE) 08:45:18 435.215
STRAND 1 06 Dec 08:51:31 08:53:04 11° 271° (W) 08:54:37 437.568
CINEMA 3 06 Dec 08:53:16 08:57:42 37° 290° (WNW) 09:01:55 145.822/145.860
ZACube-1 06 Dec 08:57:37 09:01:03 24° 94° (E) 09:04:25 437.345
CUTE 1.7 + AOD 2 06 Dec 08:58:47 09:02:49 46° 287° (WNW) 09:06:51 437.475
TIGRISAT 06 Dec 09:04:10 09:07:36 20° 66° (ENE) 09:11:00 435.000
FUNcube-1 06 Dec 09:05:09 09:08:43 26° 95° (E) 09:12:13 145.935
ANTELSAT 06 Dec 09:05:29 09:09:04 22° 66° (ENE) 09:12:38 437.575/2403.000
CUBEBUG 2 06 Dec 09:10:12 09:14:38 90° 167° (SSE) 09:18:53 437.445
Cosmos 2504 06 Dec 09:12:48 09:19:53 29° 278° (W) 09:26:40 435.465 / 435.565
NOAA 18 06 Dec 09:16:37 09:19:23 14° 302° (WNW) 09:22:09 137.9125
CANX-2 06 Dec 09:17:16 09:20:46 26° 291° (WNW) 09:24:15 2200.000
AAUSAT CUBESAT 2 06 Dec 09:21:37 09:25:45 74° 285° (WNW) 09:29:53 437.432
PRISM 06 Dec 09:34:44 09:38:31 37° 262° (W) 09:42:20 437.425
Oscar 11 06 Dec 09:35:07 09:39:22 57° 100° (E) 09:43:36 145.826/435.025
CUSAT 1 06 Dec 09:36:28 09:39:25 32° 97° (E) 09:41:57 437.405
SEEDS 06 Dec 09:42:33 09:45:51 23° 292° (WNW) 09:49:10 437.485
AO-85 06 Dec 09:44:01 09:44:37 10° 36° (NE) 09:45:14 145.980
HO-68 06 Dec 09:44:48 09:51:20 39° 296° (WNW) 09:57:52 435.675
JAS-2 06 Dec 09:50:58 09:55:09 19° 63° (ENE) 09:59:03 435.910
COMPASS 1 06 Dec 09:52:33 09:56:01 26° 291° (WNW) 09:59:28 437.405
UWE-3 06 Dec 09:52:35 09:56:45 47° 287° (WNW) 10:00:46 435.000/436.395/437.385
UNISAT 6 06 Dec 10:09:15 10:13:56 83° 255° (WSW) 10:18:37 437.425
RS-15 06 Dec 10:12:22 10:23:25 41° 322° (NW) 10:34:55 29.354- 29.394
AIST 2 06 Dec 10:17:47 10:20:07 15° 319° (NW) 10:22:30 435.215
DELFI C3 06 Dec 10:18:50 10:22:48 64° 102° (ESE) 10:26:44 145.870
Cosmos 2499 06 Dec 10:19:56 10:24:03 14° 57° (ENE) 10:28:03 435.465 / 435.565
DANDE 06 Dec 10:22:34 10:26:56 37° 97° (E) 10:30:19 436.750
HUMSAT D 06 Dec 10:23:46 10:27:31 35° 97° (E) 10:31:17 437.325/437.525
ZACube-1 06 Dec 10:33:42 10:37:19 28° 291° (WNW) 10:40:51 437.345
TIGRISAT 06 Dec 10:39:32 10:43:59 42° 262° (W) 10:48:25 435.000
ANTELSAT 06 Dec 10:41:08 10:45:31 39° 262° (W) 10:49:53 437.575/2403.000
FUNcube-1 06 Dec 10:41:25 10:44:52 25° 292° (WNW) 10:48:15 145.935
NANOSAT C BR1 06 Dec 10:45:18 10:48:46 25° 68° (ENE) 10:52:16 145.865
GONETS M04 06 Dec 10:49:38 10:55:53 21° 64° (ENE) 11:02:06
QB50P2 06 Dec 10:50:57 10:54:47 32° 70° (ENE) 10:58:37 145.880/145.840
POLYITAN 1 06 Dec 10:51:32 10:55:19 31° 70° (ENE) 10:59:07 437.675
